When you browse on this site, cookies collect data to enhance your experience and personalize the content and advertising you see.
Visit our Privacy Policy to learn more. By continuing to use the site, you agree to this use of cookies and data.
  • In Hungary
  • List of Countries
  • For 7 days
  • Water Temperature
  • Satellite Maps
  • Weather Map
  • News
  • Weather Widgets
  • user-avatar
    Login

    Hourly Weather Meaux

    Today, 19 March, Tuesday

    Time Temperature Precipitation Wind Pressure Humidity
    00:00 +5°C° 0 mm 1 mps 763 mmHg 85%
    01:00 +4°C° 0 mm 0 mps 763 mmHg 86%
    02:00 +4°C° 0 mm 0 mps 763 mmHg 86%
    03:00 +3°C° 0 mm 0 mps 763 mmHg 87%
    04:00 +3°C° 0 mm 0 mps 763 mmHg 87%
    05:00 +3°C° 0 mm 0 mps 764 mmHg 88%
    06:00 +3°C° 0 mm 0 mps 764 mmHg 88%
    07:00 +4°C° 0 mm 0 mps 765 mmHg 82%
    08:00 +6°C° 0 mm 0 mps 765 mmHg 76%
    09:00 +8°C° 0 mm 0 mps 765 mmHg 70%
    10:00 +9°C° 0 mm 0 mps 765 mmHg 64%
    11:00 +10°C° 0 mm 0 mps 766 mmHg 59%
    12:00 +12°C° 0 mm 0 mps 766 mmHg 53%
    13:00 +12°C° 0 mm 0 mps 766 mmHg 51%
    14:00 +12°C° 0 mm 0 mps 766 mmHg 49%
    15:00 +12°C° 0 mm 0 mps 765 mmHg 47%
    16:00 +11°C° 0 mm 0 mps 766 mmHg 51%
    17:00 +10°C° 0 mm 0 mps 766 mmHg 54%
    18:00 +9°C° 0 mm 0 mps 766 mmHg 58%
    19:00 +8°C° 0 mm 0 mps 767 mmHg 60%
    20:00 +9°C° 0 mm 1 mps 767 mmHg 62%
    21:00 +8°C° 0 mm 1 mps 768 mmHg 64%
    22:00 +8°C° 0 mm 1 mps 768 mmHg 64%
    23:00 +7°C° 0 mm 1 mps 768 mmHg 65%

    Tomorrow, 20 March, Wednesday

    Time Temperature Precipitation Wind Pressure Humidity
    00:00 +7°C° 0 mm 1 mps 768 mmHg 66%
    01:00 +7°C° 0 mm 1 mps 768 mmHg 66%
    02:00 +6°C° 0 mm 1 mps 769 mmHg 66%
    03:00 +6°C° 0 mm 1 mps 769 mmHg 66%
    04:00 +6°C° 0 mm 1 mps 769 mmHg 67%
    05:00 +5°C° 0 mm 1 mps 769 mmHg 67%
    06:00 +5°C° 0 mm 1 mps 769 mmHg 67%
    07:00 +7°C° 0 mm 1 mps 770 mmHg 63%
    08:00 +9°C° 0 mm 1 mps 770 mmHg 59%
    09:00 +10°C° 0 mm 1 mps 770 mmHg 55%
    10:00 +12°C° 0 mm 1 mps 770 mmHg 53%
    11:00 +13°C° 0 mm 1 mps 770 mmHg 51%
    12:00 +14°C° 0 mm 1 mps 770 mmHg 48%
    13:00 +15°C° 0 mm 1 mps 770 mmHg 48%
    14:00 +15°C° 0 mm 1 mps 770 mmHg 47%
    15:00 +15°C° 0 mm 1 mps 769 mmHg 47%
    16:00 +14°C° 0 mm 1 mps 769 mmHg 52%
    17:00 +13°C° 0 mm 1 mps 770 mmHg 58%
    18:00 +12°C° 0 mm 2 mps 770 mmHg 63%
    19:00 +10°C° 0 mm 2 mps 770 mmHg 66%
    20:00 +9°C° 0 mm 2 mps 770 mmHg 69%
    21:00 +9°C° 0 mm 1 mps 770 mmHg 72%
    22:00 +9°C° 0 mm 1 mps 770 mmHg 73%
    23:00 +9°C° 0 mm 1 mps 770 mmHg 74%

    Day after tomorrow, 21 March, Thursday

    Time Temperature Precipitation Wind Pressure Humidity
    00:00 +8°C° 0 mm 1 mps 770 mmHg 75%
    01:00 +8°C° 0 mm 1 mps 770 mmHg 77%
    02:00 +8°C° 0 mm 1 mps 770 mmHg 79%
    03:00 +7°C° 0 mm 1 mps 770 mmHg 81%
    04:00 +7°C° 0 mm 1 mps 770 mmHg 82%
    05:00 +7°C° 0 mm 1 mps 770 mmHg 84%
    06:00 +7°C° 0 mm 1 mps 770 mmHg 85%
    07:00 +7°C° 0 mm 2 mps 770 mmHg 77%
    08:00 +9°C° 0 mm 2 mps 770 mmHg 69%
    09:00 +12°C° 0 mm 2 mps 770 mmHg 62%
    10:00 +13°C° 0 mm 2 mps 770 mmHg 56%
    11:00 +13°C° 0 mm 3 mps 769 mmHg 50%
    12:00 +14°C° 0 mm 3 mps 769 mmHg 44%
    13:00 +16°C° 0 mm 3 mps 769 mmHg 44%
    14:00 +16°C° 0 mm 3 mps 768 mmHg 43%
    15:00 +16°C° 0 mm 3 mps 768 mmHg 43%
    16:00 +14°C° 0 mm 3 mps 768 mmHg 48%
    17:00 +14°C° 0 mm 2 mps 768 mmHg 54%
    18:00 +12°C° 0 mm 2 mps 767 mmHg 60%
    19:00 +10°C° 0 mm 2 mps 768 mmHg 61%
    20:00 +10°C° 0 mm 2 mps 768 mmHg 63%
    21:00 +10°C° 0 mm 1 mps 768 mmHg 64%
    22:00 +10°C° 0 mm 1 mps 768 mmHg 65%
    23:00 +9°C° 0 mm 1 mps 768 mmHg 67%

    22 March, Friday

    Time Temperature Precipitation Wind Pressure Humidity
    00:00 +9°C° 0 mm 1 mps 768 mmHg 68%
    01:00 +9°C° 0 mm 1 mps 767 mmHg 70%
    02:00 +8°C° 0 mm 1 mps 767 mmHg 73%
    03:00 +8°C° 0 mm 1 mps 767 mmHg 75%
    04:00 +8°C° 0 mm 1 mps 767 mmHg 77%
    05:00 +7°C° 0 mm 1 mps 767 mmHg 78%
    06:00 +7°C° 0 mm 1 mps 767 mmHg 80%
    07:00 +9°C° 0 mm 1 mps 767 mmHg 74%
    08:00 +11°C° 0 mm 1 mps 767 mmHg 68%
    09:00 +12°C° 0 mm 1 mps 768 mmHg 61%
    10:00 +14°C° 0 mm 1 mps 767 mmHg 56%
    11:00 +15°C° 0 mm 2 mps 767 mmHg 51%
    12:00 +17°C° 0 mm 2 mps 767 mmHg 47%
    13:00 +17°C° 0 mm 2 mps 767 mmHg 45%
    14:00 +19°C° 0 mm 1 mps 766 mmHg 44%
    15:00 +19°C° 0 mm 1 mps 766 mmHg 43%
    16:00 +18°C° 0 mm 1 mps 766 mmHg 48%
    17:00 +15°C° 0 mm 1 mps 766 mmHg 53%
    18:00 +14°C° 0 mm 1 mps 766 mmHg 58%
    19:00 +13°C° 0 mm 1 mps 766 mmHg 60%
    20:00 +12°C° 0 mm 1 mps 766 mmHg 63%
    21:00 +12°C° 0 mm 1 mps 766 mmHg 65%
    22:00 +11°C° 0 mm 1 mps 766 mmHg 66%
    23:00 +10°C° 0 mm 0 mps 766 mmHg 68%

    23 March, Saturday

    Time Temperature Precipitation Wind Pressure Humidity
    00:00 +9°C° 0 mm 0 mps 766 mmHg 69%
    01:00 +9°C° 0 mm 0 mps 765 mmHg 71%
    02:00 +8°C° 0 mm 0 mps 765 mmHg 73%
    03:00 +8°C° 0 mm 0 mps 765 mmHg 75%
    04:00 +8°C° 0 mm 0 mps 765 mmHg 76%
    05:00 +9°C° 0 mm 1 mps 765 mmHg 77%
    06:00 +8°C° 0 mm 1 mps 765 mmHg 78%
    07:00 +10°C° 0 mm 1 mps 765 mmHg 73%
    08:00 +12°C° 0 mm 1 mps 765 mmHg 67%
    09:00 +14°C° 0 mm 1 mps 765 mmHg 62%
    10:00 +15°C° 0 mm 1 mps 765 mmHg 58%
    11:00 +16°C° 0 mm 2 mps 764 mmHg 54%
    12:00 +17°C° 0 mm 2 mps 764 mmHg 50%
    13:00 +18°C° 0 mm 2 mps 763 mmHg 48%
    14:00 +18°C° 0 mm 2 mps 763 mmHg 47%
    15:00 +19°C° 0 mm 2 mps 762 mmHg 45%
    16:00 +18°C° 0 mm 1 mps 762 mmHg 50%
    17:00 +16°C° 0 mm 1 mps 762 mmHg 54%
    18:00 +15°C° 0 mm 1 mps 762 mmHg 59%
    19:00 +14°C° 0 mm 1 mps 762 mmHg 61%
    20:00 +13°C° 0 mm 1 mps 763 mmHg 64%
    21:00 +12°C° 0 mm 1 mps 763 mmHg 66%
    22:00 +12°C° 0 mm 1 mps 763 mmHg 69%
    23:00 +11°C° 0 mm 1 mps 763 mmHg 72%

    24 March, Sunday

    Time Temperature Precipitation Wind Pressure Humidity
    00:00 +11°C° 0 mm 1 mps 763 mmHg 75%
    01:00 +10°C° 0 mm 1 mps 763 mmHg 79%
    02:00 +10°C° 0 mm 1 mps 763 mmHg 82%
    03:00 +9°C° 0 mm 1 mps 763 mmHg 86%
    04:00 +9°C° 0 mm 1 mps 763 mmHg 88%
    05:00 +9°C° 0 mm 1 mps 763 mmHg 89%
    06:00 +9°C° 0 mm 1 mps 763 mmHg 90%
    07:00 +9°C° 0 mm 2 mps 764 mmHg 84%
    08:00 +12°C° 0 mm 2 mps 764 mmHg 78%
    09:00 +13°C° 0 mm 2 mps 764 mmHg 72%
    10:00 +14°C° 0 mm 2 mps 764 mmHg 66%
    11:00 +15°C° 0 mm 2 mps 764 mmHg 59%
    12:00 +16°C° 0 mm 2 mps 764 mmHg 52%
    13:00 +17°C° 0 mm 2 mps 764 mmHg 51%
    14:00 +17°C° 0 mm 2 mps 764 mmHg 49%
    15:00 +18°C° 0 mm 3 mps 763 mmHg 48%
    16:00 +16°C° 0 mm 3 mps 764 mmHg 55%
    17:00 +14°C° 0 mm 3 mps 764 mmHg 61%
    18:00 +13°C° 0 mm 3 mps 764 mmHg 68%
    19:00 +12°C° 0 mm 4 mps 765 mmHg 74%
    20:00 +11°C° 0 mm 4 mps 765 mmHg 80%
    21:00 +9°C° 0 mm 5 mps 766 mmHg 85%
    22:00 +8°C° 0 mm 5 mps 766 mmHg 82%
    23:00 +7°C° 0 mm 4 mps 766 mmHg 78%
    Show more